Location: Hylvaty SDH
(49.9612°N, 16.4057°E)
Time: 11:40:18
(UTC+01:00)

Tiros 1 - Pass Details

Date: 02 October 2020
Orbit: 630 x 663 km, 48.4° (Epoch: 28 October)

Event Time Altitude Azimuth Distance (km) Brightness Sun altitude
Rises 20:23:56 0° 280° (W) 2,982 12.2 -19.0°
Reaches altitude 10° 20:26:57 10° 261° (W) 2,072 10.7 -19.4°
Maximum altitude 20:30:04 17° 220° (SW) 1,633 9.4 -19.9°
Enters shadow 20:33:04 10° 180° (S) 2,043 9.5 -20.4°
Drops below altitude 10° 20:33:11 10° 179° (S) 2,072 - -20.4°
Sets 20:36:12 0° 160° (SSE) 2,982 - -20.9°
